GFSFLT1_500_rhum_057.txt.gz
RH
46 32 26 27 26 25 25 24 38 54 39 46 46 30 19 24 51 59 52 45 19 20 20 20 19 17 16 15 13 11 10 11
25 27 26 26 28 33 35 35 32 39 52 63 52 41 26 50 56 65 65 28 23 22 21 18 18 16 12 11 10 11 13 20
24 25 25 25 30 38 40 39 39 37 42 48 49 39 30 38 47 66 76 29 22 18 18 18 15 13 14 16 19 18 23 22
26 23 20 18 23 30 39 38 35 32 43 50 38 42 33 44 56 74 54 35 18 18 17 15 16 21 19 28 24 21 30 46
23 23 20 16 15 16 24 32 35 46 63 45 31 41 35 34 58 73 73 54 50 19 17 21 29 31 31 48 35 43 59 72
34 24 25 27 20 16 14 14 19 38 74 64 44 48 50 71 93 96 100 97 57 23 40 34 35 42 53 46 34 51 85 86
95 66 52 40 35 31 28 20 21 48 64 83 79 52 63 87 93 84 89 69 42 67 52 46 47 54 58 67 52 61 91 95
83 99 93 94 86 68 30 23 61 56 55 78 92 96 96 74 81 73 56 93 99 91 77 71 65 70 61 56 78 88 94 99
75 56 57 78 72 44 29 42 47 38 50 47 58 98 97 80 49 54 60 91 97 84 76 70 90 65 63 89 91 100 100 100
41 48 52 36 21 21 25 38 27 28 24 33 84 97 94 84 65 70 66 77 83 80 84 92 100 95 97 99 100 100 99 90
23 24 21 20 18 17 18 19 20 22 29 29 52 90 77 77 86 78 84 87 79 98 100 100 96 100 96 100 92 77 93 78
52 21 19 18 18 17 18 19 24 26 28 28 59 89 86 88 97 97 91 98 100 98 100 100 100 94 99 94 98 98 84 85
30 69 56 46 39 35 24 28 34 33 28 41 69 86 94 98 99 100 100 100 99 99 100 100 89 100 93 90 100 75 88 100
15 17 32 70 80 73 68 58 54 36 50 54 72 96 100 97 78 89 96 99 100 100 100 80 74 85 100 100 86 100 100 100
16 10 15 26 71 80 60 46 40 39 45 70 81 87 86 66 82 77 56 71 100 71 71 64 91 95 62 82 100 100 100 78
16 19 17 30 34 38 39 44 52 54 59 44 33 19 19 16 20 14 14 21 37 52 49 38 48 81 93 87 96 91 71 26
13 20 26 28 33 33 39 47 46 36 16 12 10 8 9 10 11 13 18 34 40 36 37 68 81 94 100 100 100 86 29 10
11 19 25 30 36 42 38 32 20 12 10 8 9 9 10 10 12 20 32 36 36 57 62 83 95 98 98 94 75 37 14 9
15 20 28 37 38 34 26 14 12 10 10 10 11 11 12 13 19 30 35 40 50 77 99 98 91 100 100 85 27 16 10 8

GFSFLT1_500_rhum_063.txt.gz
RH
86 88 90 91 80 82 49 35 37 36 38 40 49 57 66 78 98 88 74 72 93 89 96 60 22 21 20 16 18 17 14 14
37 35 37 43 40 38 27 29 40 46 42 43 51 64 72 78 62 34 44 65 71 85 84 42 22 19 17 18 16 15 16 23
20 20 23 26 26 25 23 20 22 30 40 30 34 43 43 37 34 32 39 74 83 96 84 70 39 18 19 26 22 23 25 43
16 18 19 19 19 19 19 20 23 27 32 40 49 53 52 56 51 39 40 53 77 87 91 88 59 22 37 76 52 32 40 39
21 20 20 19 18 18 17 20 25 27 31 30 38 44 57 61 44 43 36 54 84 87 86 84 79 73 78 69 52 54 64 40
26 23 20 18 18 18 18 19 21 27 28 22 20 28 59 67 47 41 41 38 48 90 99 99 100 99 90 64 61 90 78 62
68 72 65 59 38 29 35 41 38 54 43 28 22 29 48 65 76 70 68 56 74 83 99 98 96 87 87 83 74 90 81 78
63 55 65 67 87 53 44 41 44 61 47 30 57 76 63 62 63 82 84 99 98 99 96 93 85 96 100 98 91 98 96 81
58 57 64 59 96 93 84 70 62 42 42 40 54 54 43 38 40 80 86 79 93 98 98 94 93 98 98 99 95 92 91 94
80 66 51 45 72 84 79 60 57 37 48 42 48 29 23 23 50 48 30 32 77 98 99 98 98 99 98 98 91 100 100 100
86 63 52 46 29 26 30 31 26 22 19 20 23 21 23 32 38 37 41 60 68 75 95 98 90 97 100 90 85 100 98 99
94 97 92 62 55 24 22 25 24 22 21 20 26 37 46 38 40 59 66 65 49 68 87 77 97 98 96 89 96 100 100 100
84 77 65 67 82 48 29 26 25 23 22 22 29 24 31 41 54 53 42 37 53 60 45 41 80 68 72 99 92 81 99 96
31 31 34 44 69 72 51 48 46 38 35 42 55 71 83 83 62 38 38 50 58 29 14 26 55 21 14 22 15 45 23 32
24 20 18 18 19 20 44 77 92 96 99 100 96 84 68 48 58 54 66 56 22 11 10 10 12 13 16 20 28 34 38 47
21 12 8 9 10 10 11 19 22 22 24 35 52 54 63 72 89 94 54 14 11 11 13 15 19 23 26 31 35 40 46 54
16 10 8 10 12 17 16 12 22 30 59 75 100 100 88 77 60 19 12 13 14 17 19 28 31 33 35 38 39 42 48 70
12 8 10 16 18 22 20 21 40 48 44 32 42 45 38 17 13 13 16 20 22 26 36 39 39 39 40 41 43 49 67 82
13 27 35 37 33 27 21 18 19 24 33 47 44 35 17 13 16 20 25 32 37 43 44 44 44 43 44 47 55 75 88 89

GFSFLT1_500_rhum_069.txt.gz
RH
66 69 69 64 59 64 63 62 69 70 67 64 69 79 78 71 79 80 78 77 90 96 93 94 93 98 60 21 18 16 14 13
29 36 64 64 55 59 50 48 45 44 48 53 52 65 67 65 60 50 40 47 55 68 79 76 59 85 61 19 20 17 15 16
20 20 24 23 24 24 23 28 29 25 18 17 20 24 29 33 35 40 42 43 47 44 72 75 70 76 76 30 27 30 46 53
15 18 18 18 17 17 17 16 15 15 16 18 20 22 25 27 32 41 46 45 40 39 37 71 77 85 94 88 85 82 73 72
11 13 13 15 15 13 12 12 12 12 12 13 14 14 12 12 18 40 56 47 39 40 36 40 55 73 76 80 87 94 94 89
16 35 58 51 39 29 18 18 23 29 26 26 26 23 18 12 11 24 50 58 58 70 70 69 85 94 92 83 89 85 88 98
32 57 51 42 48 49 39 40 49 44 43 41 28 17 32 47 22 33 51 48 44 55 94 62 64 64 71 82 98 96 98 93
34 47 46 21 26 38 46 52 53 51 44 29 41 45 34 61 59 38 31 29 24 26 52 50 52 73 72 72 78 90 95 88
27 38 39 35 39 44 36 35 24 26 30 20 11 14 24 26 41 56 32 20 19 30 51 73 75 63 56 57 49 47 40 26
24 26 27 44 65 55 39 31 25 21 23 21 15 22 22 45 27 49 96 68 33 80 100 97 98 82 54 50 47 47 21 14
31 31 33 37 44 49 47 44 34 22 18 22 20 18 38 64 24 47 34 34 99 95 98 87 96 83 69 55 61 51 16 11
34 35 36 38 42 45 39 58 54 40 23 20 22 19 19 23 38 56 94 98 98 85 58 70 61 52 63 75 68 29 11 12
37 37 44 55 45 35 44 58 55 50 40 54 86 72 74 88 98 96 99 64 51 48 61 45 52 69 77 76 26 12 14 18
34 37 42 38 35 30 29 31 63 79 88 98 96 85 94 84 94 76 82 67 57 53 76 88 88 80 66 25 14 18 24 33
34 34 38 35 27 14 16 36 71 48 42 49 72 70 83 89 75 61 56 36 77 89 98 100 76 46 20 15 20 31 35 31
42 66 56 31 27 25 19 15 22 27 33 36 42 43 45 53 58 58 49 87 94 95 88 56 31 16 16 22 32 33 25 21
71 40 25 16 26 44 37 26 26 31 33 35 36 30 35 42 46 77 100 100 80 65 40 32 16 15 19 29 31 23 24 30
53 28 23 22 23 29 40 35 23 19 21 24 28 28 33 40 43 49 54 34 29 36 30 17 17 20 28 33 30 28 32 46
72 28 27 29 20 16 12 14 15 17 17 16 15 16 18 20 20 19 20 26 34 30 19 18 21 27 30 34 33 37 54 58

GFSFLT1_500_rhum_072.txt.gz
RH
51 61 64 67 68 64 59 57 61 61 61 65 67 70 77 84 78 78 82 86 94 97 94 86 92 90 90 76 66 22 20 20
33 51 64 50 47 76 61 71 83 77 72 66 75 75 71 68 70 69 79 88 92 86 82 81 88 91 93 87 50 22 20 20
20 24 29 55 40 41 40 43 41 40 43 58 70 63 57 53 50 39 35 41 45 47 59 79 77 80 72 79 74 30 22 20
19 19 19 18 20 21 24 23 20 16 17 22 28 29 27 25 24 28 28 33 40 38 45 50 70 68 79 96 92 67 60 64
11 12 13 15 15 15 15 15 13 12 12 13 14 16 15 12 12 17 39 44 35 34 38 35 41 44 45 57 56 52 51 67
23 33 15 9 9 9 9 9 9 9 9 9 10 10 9 10 10 21 34 43 58 50 48 66 74 77 80 74 71 65 86 78
38 61 47 31 21 17 14 11 11 12 14 16 15 13 16 26 30 18 48 41 47 68 63 75 67 47 46 65 70 70 66 66
28 50 49 34 22 34 37 37 31 26 26 20 19 28 19 41 50 50 40 38 42 34 30 39 49 68 68 59 57 60 55 46
38 32 41 39 30 33 35 36 34 30 28 25 23 14 16 28 38 60 68 47 30 21 18 21 43 80 79 83 72 64 55 47
29 44 50 42 38 42 50 52 39 28 26 26 30 27 33 59 52 49 71 66 76 87 74 67 99 99 100 96 77 63 55 61
27 30 35 44 51 52 45 46 49 52 47 25 28 31 24 56 83 72 91 74 69 46 73 96 99 98 98 93 59 56 72 81
26 28 32 38 41 49 71 78 76 66 80 77 74 34 26 20 45 60 80 96 97 98 98 94 98 98 93 80 77 74 78 48
29 22 21 24 31 47 56 75 69 83 93 100 98 98 94 74 55 94 96 97 97 98 92 80 95 98 84 80 87 65 39 14
31 35 35 23 19 24 32 36 55 85 78 97 95 81 96 96 96 97 98 95 80 84 76 80 98 93 93 85 64 35 16 19
69 64 65 55 27 24 22 23 34 53 62 67 34 34 37 83 89 76 58 56 55 80 91 92 77 70 81 66 44 21 19 24
84 56 68 54 55 60 36 34 31 29 35 34 34 41 44 50 48 46 39 36 52 61 70 82 90 62 53 47 24 20 27 27
64 50 63 20 42 22 26 42 38 37 43 37 31 27 27 31 25 24 27 33 42 54 46 49 33 43 43 26 23 26 24 22
35 47 55 52 23 28 30 26 25 36 30 13 14 18 17 17 17 17 18 19 26 23 22 26 38 41 25 23 24 22 21 22
27 42 44 23 24 24 16 12 17 15 13 15 14 14 14 15 17 18 17 19 24 31 34 37 36 22 22 22 22 22 23 26

GFSFLT1_500_rhum_078.txt.gz
RH
33 38 57 56 56 62 62 52 48 56 56 92 98 96 98 99 96 86 88 98 95 88 92 94 97 99 99 93 98 100 99 100
25 33 57 49 52 59 67 77 66 63 56 94 100 98 98 98 97 98 97 98 97 100 98 98 99 100 96 100 100 99 98 94
22 23 30 53 43 74 78 72 78 76 100 91 96 90 88 97 98 98 100 94 96 99 100 99 100 98 97 100 91 92 95 83
19 20 22 37 33 35 58 72 73 77 74 90 91 93 86 92 93 99 89 86 85 86 86 96 100 98 100 86 85 82 63 68
17 20 19 19 18 21 26 20 29 55 73 96 99 96 95 93 78 74 77 83 85 89 93 93 95 91 92 87 75 62 60 75
12 12 14 14 15 16 16 16 21 18 19 48 54 58 64 54 50 42 44 46 50 51 51 49 48 54 54 56 64 53 47 48
11 13 13 22 16 13 13 13 15 23 19 24 29 35 32 28 32 32 34 37 40 40 40 42 43 41 34 35 40 69 83 74
18 28 35 31 32 38 20 17 21 23 25 23 20 18 16 14 16 18 22 33 51 64 61 52 46 44 46 55 68 84 81 88
21 26 45 47 40 34 49 50 44 42 38 33 33 29 27 28 27 32 44 40 36 41 47 48 44 42 40 35 29 42 72 84
26 24 32 46 46 42 34 36 40 45 42 41 35 28 31 32 30 30 35 40 42 47 58 61 55 48 41 37 59 39 73 93
24 23 30 32 37 38 39 41 47 46 44 42 39 34 30 29 28 29 28 31 42 76 70 75 87 86 95 96 93 96 93 94
27 27 28 34 37 37 43 68 77 72 78 66 58 63 64 55 47 44 40 45 38 54 76 95 98 98 99 95 99 97 97 100
40 36 33 33 35 46 53 63 72 86 89 99 98 97 97 98 98 98 97 93 100 94 94 100 99 97 96 71 86 88 93 97
55 51 53 39 33 36 37 43 61 78 79 89 95 98 98 98 92 40 50 57 99 97 92 98 88 96 70 55 58 60 64 74
59 53 68 45 54 63 54 48 30 27 32 42 40 60 94 96 95 55 46 47 84 93 69 63 60 52 72 47 47 82 77 68
95 87 72 64 53 54 52 39 48 53 41 42 38 41 58 73 93 94 61 43 39 42 81 99 62 56 58 48 57 48 42 72
62 90 93 76 97 87 78 56 52 56 51 54 27 22 39 76 85 82 64 36 25 24 48 67 76 57 38 46 51 63 58 61
79 100 98 100 100 95 86 54 50 55 39 28 28 34 52 62 61 52 36 25 32 33 37 38 42 35 37 40 40 30 39 37
94 73 77 76 100 94 62 44 34 30 29 25 18 19 30 44 50 42 20 29 32 32 40 49 49 44 33 25 29 32 32 33